Regional Weather Roundup
Issued by NWS Grand Forks, ND

Home | Current Version | Previous Version | Text Only | Print | Product List | Glossary On
Versions: 1 2 3 4 5 6 7 8 9 10 11 12 13 14 15 16 17 18 19 20 21 22 23 24 25 26 27 28 29 30 31 32 33 34 35 36 37 38 39 40 41 42 43 44 45 46 47 48 49 50
000
ASUS43 KFGF 240231
RWRFGF
PRAIRIE TO PINES  WEATHER ROUNDUP
NATIONAL WEATHER SERVICE EASTERN NORTH DAKOTA/GRAND FORKS ND
900 PM CDT MON OCT 23 2017

 **SATELLITE DATA USED TO AUGMENT SKY COVER AT AUTOMATED STATIONS**
 *****  WEATHER ACROSS EASTERN NORTH DAKOTA  *****

CITY           SKY/WX    TMP DP  RH WIND       PRES   REMARKS
GRAND FORKS    FAIR      39  30  70 N16       30.12R
GRAND FRKS AFB FAIR      38  28  69 N15       30.14R
DEVILS LAKE    FAIR      42  28  57 N17G26    30.18R
FARGO          FAIR      41  29  62 N16G26    30.09R
WAHPETON ARPT  NOT AVBL
$$

 ***** WEATHER ACROSS CENTRAL AND WESTERN NORTH DAKOTA  *****

CITY           SKY/WX    TMP DP  RH WIND       PRES   REMARKS
BISMARCK       FAIR      48  32  53 N16G23    30.26R
MINOT          FAIR      43  31  62 NW14      30.27R
JAMESTOWN      FAIR      43  31  62 NW17      30.15R
MINOT AFB      FAIR      41  31  68 NW14      30.26R
GARRISON         N/A     40  31  70 NW12      30.28R
WILLISTON      FAIR      43  28  55 W9        30.38R
DICKINSON      FAIR      43  26  51 NW12      30.33R
HETTINGER      FAIR      43  23  45 NW14      30.35R
$$

 *****  OTHER AIRPORT OBSERVATIONS IN OUR AREA  *****

CITY           SKY/WX    TMP DP  RH WIND       PRES   REMARKS
WALHALLA       FAIR     N/A N/A N/A NW10      30.18R
GRAFTON AIRPOR FAIR      37  30  75 NW14      30.17R
VALLEY CITY AR FAIR      41  28  60 NW13G18   30.14S
CANDO          FAIR      39  27  60 N10G18    30.22R
CAVALIER APRT  FAIR      36  30  80 NW13G18   30.17R
GWINNER          N/A     43  34  70 NW20      30.11R
SHEYENNE NWR     N/A     45  28  51 N14       29.95S
ROLLA          FAIR      37  25  60 NW18      30.21R
 ***** THE ABOVE OBSERVATIONS ARE NON NWS ARE NOT QUALITY
       CONTROLLED AND MAY MIS-REPORT RAIN FOR SNOW...
$$

  *****  WEATHER ACROSS NORTHERN MINNESOTA  *****

CITY           SKY/WX    TMP DP  RH WIND       PRES   REMARKS
FLAG ISLAND    CLOUDY    43  34  70 N28       30.03R
WARROAD        CLOUDY    39  34  81 NW16G30   30.06R
ROSEAU         MOCLDY    41  32  70 N23G35    30.07R
HALLOCK        FAIR      37  28  70 NW16      30.13R
THF RVR FALLS  CLOUDY    39  27  62 N18G26    30.08R
BAUDETTE       CLOUDY    42  36  79 NW16G26   29.99R
WASKISH        CLOUDY    41  34  75 NW13G24   29.99R
CROOKSTON      MOCLDY    39  27  60 N26G32    30.10S
STEPHEN NDAWN    N/A     39  28  65 N12         N/A
GREENBUSH NDAW   N/A     37  27  65 NW12        N/A
$$
  *****  WEATHER ACROSS CENTRAL AND WEST MINNESOTA  *****

CITY           SKY/WX    TMP DP  RH WIND       PRES   REMARKS
FOSSTON        CLOUDY    37  27  65 NW16G24   30.05S
BEMIDJI        CLOUDY    39  28  63 NW14      29.99R
PARK RAPIDS    CLOUDY    40  28  62 N22G33    29.97R
ELBOW LAKE     FAIR      43  32  66 N20G28    30.02R
WADENA         FAIR      39  27  60 NW13G23   29.97S
DETROIT LAKES  FAIR      37  30  75 N14G28    30.05R
MOORHEAD       FAIR      39  28  65 N17G23    30.10R
FERGUS FALLS   FAIR      41  28  60 N14G25    30.06R
MORRIS MN      FAIR      46  32  57 N22G30    29.99R
STAPLES        FAIR      39  28  65 NW13G21   29.95R
$$
  *****  WEATHER ELSEWHERE ACROSS MINNESOTA  *****

CITY           SKY/WX    TMP DP  RH WIND       PRES   REMARKS
DULUTH         CLOUDY    42  36  79 N18G31    29.79S
INTRNTL FALLS  CLOUDY    41  31  67 N20G25    29.94R
ELY            CLOUDY    39  34  81 NW13G25   29.83R
CLOQUET        CLOUDY    43  32  65 NW18G33   29.82S
WHEATON        FAIR      45  30  57 N14G24    30.07R
BRAINERD       FAIR      43  27  53 NW16G26   29.93R
HIBBING        CLOUDY    41  33  73 NW16G31   29.86R
ALEXANDRIA     FAIR      44  31  60 N22G29    29.98R
SAINT CLOUD    FAIR      44  29  55 NW13      29.90R
MINNEAPOLIS    CLOUDY    49  29  46 N22G30    29.85F
$$

  *****  WEATHER ACROSS SOUTH DAKOTA  *****

CITY           SKY/WX    TMP DP  RH WIND       PRES   REMARKS
SIOUX FALLS    CLOUDY    52  35  52 NW15      30.04R
BROOKINGS      CLOUDY    49  34  56 NW23G31   30.03R
WATERTOWN      CLOUDY    47  36  65 NW31G38   30.03S
HURON          CLOUDY    52  32  46 N30G45    30.12R
SISSETON         N/A     49  34  56 NW25G36   30.04R
ABERDEEN       FAIR      46  34  62 NW20G31   30.15R
MITCHELL       CLOUDY    53  31  42 NW21G28   30.12S
PIERRE         MOCLDY    50  27  40 NW15      30.23R
MOBRIDGE       MOCLDY    52  31  44 N24G32    30.20R
RAPID CITY     FAIR      48  20  32 NW18G30   30.39R
$$

  *****  SOME WEATHER IN NEARBY STATES *****

CITY           SKY/WX    TMP DP  RH WIND       PRES   REMARKS
GLASGOW MT     FAIR      47  23  38 NW14      30.46R
GREAT FALLS MT FAIR      42  23  46 SW12      30.55R
CHEYENNE WY    FAIR      41  12  30 N9        30.50R
SCOTTSBLUFF NE CLOUDY    44  18  35 NW8       30.45R
OMAHA NE       FAIR      51  31  46 NW12      30.06F
DES MOINES IA  MOCLDY    50  33  52 NW12G18   29.93F
DAVENPORT IA   FAIR      50  40  68 NW16G23   29.78R
CHICAGO IL     CLOUDY    52  45  77 SW6       29.64F
EAU CLAIRE WI  NOT AVBL
LA CROSSE WI   MOCLDY    53  43  68 NW16      29.73R
$$

  *****  SOME NATIONAL WEATHER *****

CITY           SKY/WX    TMP DP  RH WIND       PRES   REMARKS
LA GUARDIA NY  MOCLDY    71  64  78 SE16G25   30.04F
RALEIGH NC     TSTM      69  69 100 W16G24    29.81R VSB 1
ATLANTA GA     MOCLDY    59  54  83 W13       29.95R
NEW ORLEANS LA FAIR      66  52  60 N5        30.05R
OKLAHOMA CITY  FAIR      60  35  39 N12       30.22R
ALBUQUERQUE NM FAIR      67  26  21 NW6       30.34R
SALT LAKE CITY FAIR      57  37  47 NW9       30.60R
LOS ANGELES CA FAIR      82  45  27 SW5       30.00R
BOISE ID       FAIR      53  37  54 W5        30.66R
SEATTLE WA     FAIR      58  46  64 N8        30.62S
$$

*** WEATHER ACROSS MANITOBA...SASKATCHEWAN AND ONTARIO ***
                ***ONTARIO***

CITY           SKY/WX    TMP DP  RH WIND       PRES   REMARKS
GERALDTON      CLOUDY    43  39  87 N5        29.74S
THUNDER BAY    MOCLDY    50  43  76 NW2       29.69S
SIOUX LOOKOUT  CLOUDY    37  36  93 N9        29.92R
TORONTO        LGT RAIN  63  55  77 SE12      29.62F
BIG TROUT LK   MOCLDY    32  25  74 NW14G22   30.00R WCI  22
PICKLE LAKE    CLOUDY    37  34  87 N7        29.92R
DRYDEN         CLOUDY    37  34  87 N14G24    29.94R
KENORA         CLOUDY    39  28  65 N16G28    30.01R
$$
                *** MANITOBA***

CITY           SKY/WX    TMP DP  RH WIND       PRES   REMARKS
BRANDON        CLEAR     34  21  60 W10       30.23R
DAUPHIN        CLEAR     28  23  80 W7        30.24R WCI  21
ISLAND LAKE    PTCLDY    34  28  80 N9G18     30.11R
PILOT MOUND      N/A     32  25  74 NW9         N/A  WCI  24
THE PAS        CLEAR     39  30  70 NW14G20   30.22R
THOMPSON       FLURRIES  34  28  80 NW5       30.15R
WINNIPEG       CLEAR     36  28  75 NW13      30.16R
LYNN LAKE      CLOUDY    32  28  86 NW5       30.15R
CHURCHILL      CLEAR     27  21  80 NW23G35   29.99R WCI  12
GILLAM         CLOUDY    28  23  80 NW17G23   30.10R WCI  16
$$
                ***SASKATCHEWAN***

CITY           SKY/WX    TMP DP  RH WIND       PRES   REMARKS
ESTEVAN        PTCLDY    39  28  65 NW9       30.32R
KINDERSLEY     CLEAR     37  23  56 W7        30.39S
LLOYDMINSTER   PTCLDY    34  28  80 W10       30.33S
PRINCE ALBERT  PTCLDY    30  27  86 VRB2      30.33R
REGINA         CLEAR     34  28  80 W12       30.35R
YORKTON        CLEAR     34  28  80 W9        30.27R
N. BATTLEFORD    N/A    N/A N/A N/A MISG        N/A
LA RONGE       PTCLDY    32  28  86 CALM      30.28R
SASKATOON      CLEAR     36  30  80 W6        30.35S
SWIFT CURRENT  CLEAR     37  23  56 W10       30.41R
$$
NOTE: THESE ARE AUTOMATED STATIONS WITH LIMITED QUALITY CONTROL
      "FAIR" INDICATES FEW OR NO CLOUDS BELOW 12,000 FEET WITH NO
      SIGNIFICANT WEATHER AND/OR OBSTRUCTIONS TO VISIBILITY.
      SKY/WX - SKY CONDITION AND SIGNIFICANT WEATHER.
      TMP - AIR TEMPERATURE.    DP   - DEWPOINT TEMPERATURE.
      RH  - RELATIVE HUMIDITY.  PRES - PRESSURE.
      HX  - HEAT INDEX.         WCI  - WIND CHILL INDEX.
$



USA.gov is the U.S. government's official web portal to all federal, state and local government web resources and services.